EGLC

London City Airport

Airport
ICAO code
EGLC
IATA Code
LCY
Summary
ICAO Region
EUR
ICAO Territory
Location

Silvertown, England

Serving
London
Elevation
19 ft
Coordinates
51° 30' 18" N , 0° 3' 17" E
KCC
Metar
EGLC 201250Z AUTO 34010KT 310V010 9999 SCT038 BKN044 10/00 Q1029

Description

Airport serving the City of London and the business district of Canary Wharf in London's Docklands.

Climatology

Temperate Marine climate/Oceanic climate (Köppen climate classification Cfb). Moderately cool summer and comparatively warm winter with a temperature range of only 14°C. Prevailing south-westerly winds from the Atlantic Ocean.

Runways

Designator Length Width Surface Rops
10/28 1508 30 CON Yes/Yes

SKYbrary Partners:

Safety knowledge contributed by: